Time,TemperatureF,DewpointF,PressureIn,WindDirection,WindDirectionDegrees,WindSpeedMPH,WindSpeedGustMPH,Humidity,HourlyPrecipIn,Conditions,Clouds,dailyrainin,SolarRadiationWatts/m^2,SoftwareType,DateUTC
2013-04-19 00:00:00,31.0,11.0,-100.00,NNE,21,4.0,9.0,42,0.00,,,0.00,0.000000,,2013-04-19 07:00:00,
2013-04-19 00:32:00,31.0,11.0,-100.00,NNE,21,4.0,9.0,42,0.00,,,0.00,0.000000,,2013-04-19 07:32:00,
2013-04-19 00:42:00,31.0,11.0,-100.00,NNE,21,4.0,9.0,42,0.00,,,0.00,0.000000,,2013-04-19 07:42:00,
2013-04-19 00:52:00,31.0,11.0,-100.00,NNE,21,4.0,9.0,42,0.00,,,0.00,0.000000,,2013-04-19 07:52:00,
2013-04-19 01:00:00,30.0,9.0,-100.00,North,359,5.0,9.0,41,0.00,,,0.00,0.000000,,2013-04-19 08:00:00,
2013-04-19 01:33:00,30.0,9.0,-100.00,North,359,5.0,9.0,41,0.00,,,0.00,0.000000,,2013-04-19 08:33:00,
2013-04-19 01:42:00,30.0,9.0,-100.00,North,359,5.0,9.0,41,0.00,,,0.00,0.000000,,2013-04-19 08:42:00,
2013-04-19 01:52:00,30.0,9.0,-100.00,North,359,5.0,9.0,41,0.00,,,0.00,0.000000,,2013-04-19 08:52:00,
2013-04-19 02:00:00,29.0,8.0,-100.00,ENE,65,4.0,10.0,40,0.00,,,0.00,0.000000,,2013-04-19 09:00:00,
2013-04-19 02:33:00,29.0,8.0,-100.00,ENE,65,4.0,10.0,40,0.00,,,0.00,0.000000,,2013-04-19 09:33:00,
2013-04-19 02:43:00,29.0,8.0,-100.00,ENE,65,4.0,10.0,40,0.00,,,0.00,0.000000,,2013-04-19 09:43:00,
2013-04-19 02:52:00,29.0,8.0,-100.00,ENE,65,4.0,10.0,40,0.00,,,0.00,0.000000,,2013-04-19 09:52:00,
2013-04-19 03:00:00,29.0,6.0,-100.00,NNE,27,3.0,5.0,37,0.00,,,0.00,0.000000,,2013-04-19 10:00:00,
2013-04-19 03:33:00,29.0,6.0,-100.00,NNE,27,3.0,5.0,37,0.00,,,0.00,0.000000,,2013-04-19 10:33:00,
2013-04-19 03:42:00,29.0,6.0,-100.00,NNE,27,3.0,5.0,37,0.00,,,0.00,0.000000,,2013-04-19 10:42:00,
2013-04-19 03:52:00,29.0,6.0,-100.00,NNE,27,3.0,5.0,37,0.00,,,0.00,0.000000,,2013-04-19 10:52:00,
2013-04-19 04:00:00,27.0,7.0,-100.00,NNE,26,2.0,6.0,42,0.00,,,0.00,0.000000,,2013-04-19 11:00:00,
2013-04-19 04:32:00,27.0,7.0,-100.00,NNE,26,2.0,6.0,42,0.00,,,0.00,0.000000,,2013-04-19 11:32:00,
2013-04-19 04:43:00,27.0,7.0,-100.00,NNE,26,2.0,6.0,42,0.00,,,0.00,0.000000,,2013-04-19 11:43:00,
2013-04-19 04:52:00,27.0,7.0,-100.00,NNE,26,2.0,6.0,42,0.00,,,0.00,0.000000,,2013-04-19 11:52:00,
2013-04-19 05:00:00,26.0,7.0,-100.00,NE,49,1.0,4.0,44,0.00,,,0.00,0.000000,,2013-04-19 12:00:00,
2013-04-19 05:22:00,26.0,7.0,-100.00,NE,49,1.0,4.0,44,0.00,,,0.00,0.000000,,2013-04-19 12:22:00,
2013-04-19 05:32:00,26.0,7.0,-100.00,NE,49,1.0,4.0,44,0.00,,,0.00,0.000000,,2013-04-19 12:32:00,
2013-04-19 05:42:00,26.0,7.0,-100.00,NE,49,1.0,4.0,44,0.00,,,0.00,0.000000,,2013-04-19 12:42:00,
2013-04-19 05:52:00,26.0,7.0,-100.00,NE,49,1.0,4.0,44,0.00,,,0.00,0.000000,,2013-04-19 12:52:00,
2013-04-19 06:00:00,24.0,7.0,-100.00,NE,49,1.0,3.0,47,0.00,,,0.00,1.000000,,2013-04-19 13:00:00,
2013-04-19 06:32:00,24.0,7.0,-100.00,NE,49,1.0,3.0,47,0.00,,,0.00,1.000000,,2013-04-19 13:32:00,
2013-04-19 06:42:00,24.0,7.0,-100.00,NE,49,1.0,3.0,47,0.00,,,0.00,1.000000,,2013-04-19 13:42:00,
2013-04-19 06:52:00,24.0,7.0,-100.00,NE,49,1.0,3.0,47,0.00,,,0.00,1.000000,,2013-04-19 13:52:00,
2013-04-19 07:00:00,30.0,9.0,-100.00,South,169,2.0,4.0,40,0.00,,,0.00,22.000000,,2013-04-19 14:00:00,
2013-04-19 07:22:00,30.0,9.0,-100.00,South,169,2.0,4.0,40,0.00,,,0.00,22.000000,,2013-04-19 14:22:00,
2013-04-19 07:32:00,30.0,9.0,-100.00,South,169,2.0,4.0,40,0.00,,,0.00,22.000000,,2013-04-19 14:32:00,
2013-04-19 07:43:00,30.0,9.0,-100.00,South,169,2.0,4.0,40,0.00,,,0.00,22.000000,,2013-04-19 14:43:00,
2013-04-19 07:52:00,30.0,9.0,-100.00,South,169,2.0,4.0,40,0.00,,,0.00,22.000000,,2013-04-19 14:52:00,
2013-04-19 08:00:00,39.0,8.0,-100.00,SSW,195,2.0,4.0,27,0.00,,,0.00,232.000000,,2013-04-19 15:00:00,
2013-04-19 08:22:00,39.0,8.0,-100.00,SSW,195,2.0,4.0,27,0.00,,,0.00,232.000000,,2013-04-19 15:22:00,
2013-04-19 08:33:00,39.0,8.0,-100.00,SSW,195,2.0,4.0,27,0.00,,,0.00,232.000000,,2013-04-19 15:33:00,
2013-04-19 08:43:00,39.0,8.0,-100.00,SSW,195,2.0,4.0,27,0.00,,,0.00,232.000000,,2013-04-19 15:43:00,
2013-04-19 08:52:00,39.0,8.0,-100.00,SSW,195,2.0,4.0,27,0.00,,,0.00,232.000000,,2013-04-19 15:52:00,
2013-04-19 09:00:00,43.0,8.0,-100.00,South,173,2.0,6.0,23,0.00,,,0.00,708.000000,,2013-04-19 16:00:00,
2013-04-19 09:33:00,43.0,8.0,-100.00,South,173,2.0,6.0,23,0.00,,,0.00,708.000000,,2013-04-19 16:33:00,
2013-04-19 09:42:00,43.0,8.0,-100.00,South,173,2.0,6.0,23,0.00,,,0.00,708.000000,,2013-04-19 16:42:00,
2013-04-19 09:52:00,43.0,8.0,-100.00,South,173,2.0,6.0,23,0.00,,,0.00,708.000000,,2013-04-19 16:52:00,
2013-04-19 10:00:00,47.0,8.0,-100.00,SSW,195,3.0,8.0,20,0.00,,,0.00,966.000000,,2013-04-19 17:00:00,
2013-04-19 10:33:00,47.0,8.0,-100.00,SSW,195,3.0,8.0,20,0.00,,,0.00,966.000000,,2013-04-19 17:33:00,
2013-04-19 10:43:00,47.0,8.0,-100.00,SSW,195,3.0,8.0,20,0.00,,,0.00,966.000000,,2013-04-19 17:43:00,
2013-04-19 10:52:00,47.0,8.0,-100.00,SSW,195,3.0,8.0,20,0.00,,,0.00,966.000000,,2013-04-19 17:52:00,
2013-04-19 11:00:00,48.0,5.0,-100.00,South,187,4.0,11.0,17,0.00,,,0.00,1167.000000,,2013-04-19 18:00:00,
2013-04-19 11:33:00,48.0,5.0,-100.00,South,187,4.0,11.0,17,0.00,,,0.00,1167.000000,,2013-04-19 18:33:00,
2013-04-19 11:43:00,48.0,5.0,-100.00,South,187,4.0,11.0,17,0.00,,,0.00,1167.000000,,2013-04-19 18:43:00,
2013-04-19 11:52:00,48.0,5.0,-100.00,South,187,4.0,11.0,17,0.00,,,0.00,1167.000000,,2013-04-19 18:52:00,
2013-04-19 12:00:00,52.0,4.0,-100.00,South,191,4.0,9.0,14,0.00,,,0.00,1288.000000,,2013-04-19 19:00:00,
2013-04-19 12:32:00,52.0,4.0,-100.00,South,191,4.0,9.0,14,0.00,,,0.00,1288.000000,,2013-04-19 19:32:00,
2013-04-19 12:42:00,52.0,4.0,-100.00,South,191,4.0,9.0,14,0.00,,,0.00,1288.000000,,2013-04-19 19:42:00,
2013-04-19 12:52:00,52.0,4.0,-100.00,South,191,4.0,9.0,14,0.00,,,0.00,1288.000000,,2013-04-19 19:52:00,
2013-04-19 13:00:00,54.0,3.0,-100.00,South,189,5.0,10.0,12,0.00,,,0.00,1330.000000,,2013-04-19 20:00:00,
2013-04-19 13:32:00,54.0,3.0,-100.00,South,189,5.0,10.0,12,0.00,,,0.00,1330.000000,,2013-04-19 20:32:00,
2013-04-19 13:42:00,54.0,3.0,-100.00,South,189,5.0,10.0,12,0.00,,,0.00,1330.000000,,2013-04-19 20:42:00,
2013-04-19 13:52:00,54.0,3.0,-100.00,South,189,5.0,10.0,12,0.00,,,0.00,1330.000000,,2013-04-19 20:52:00,
2013-04-19 14:00:00,56.0,4.0,-100.00,West,270,6.0,13.0,12,0.00,,,0.00,1290.000000,,2013-04-19 21:00:00,
2013-04-19 14:32:00,56.0,4.0,-100.00,West,270,6.0,13.0,12,0.00,,,0.00,1290.000000,,2013-04-19 21:32:00,
2013-04-19 14:43:00,56.0,4.0,-100.00,West,270,6.0,13.0,12,0.00,,,0.00,1290.000000,,2013-04-19 21:43:00,
2013-04-19 14:52:00,56.0,4.0,-100.00,West,270,6.0,13.0,12,0.00,,,0.00,1290.000000,,2013-04-19 21:52:00,
2013-04-19 15:00:00,59.0,6.0,-100.00,SW,233,7.0,16.0,12,0.00,,,0.00,1176.000000,,2013-04-19 22:00:00,
2013-04-19 15:33:00,59.0,6.0,-100.00,SW,233,7.0,16.0,12,0.00,,,0.00,1176.000000,,2013-04-19 22:33:00,
2013-04-19 15:42:00,59.0,6.0,-100.00,SW,233,7.0,16.0,12,0.00,,,0.00,1176.000000,,2013-04-19 22:42:00,
2013-04-19 15:52:00,59.0,6.0,-100.00,SW,233,7.0,16.0,12,0.00,,,0.00,1176.000000,,2013-04-19 22:52:00,
2013-04-19 16:00:00,56.0,4.0,-100.00,West,267,6.0,20.0,12,0.00,,,0.00,833.000000,,2013-04-19 23:00:00,
2013-04-19 16:32:00,56.0,4.0,-100.00,West,267,6.0,20.0,12,0.00,,,0.00,833.000000,,2013-04-19 23:32:00,
2013-04-19 16:42:00,56.0,4.0,-100.00,West,267,6.0,20.0,12,0.00,,,0.00,833.000000,,2013-04-19 23:42:00,
2013-04-19 16:52:00,56.0,4.0,-100.00,West,267,6.0,20.0,12,0.00,,,0.00,833.000000,,2013-04-19 23:52:00,
2013-04-19 17:00:00,53.0,5.0,-100.00,West,268,10.0,19.0,14,0.00,,,0.00,607.000000,,2013-04-20 00:00:00,
2013-04-19 17:32:00,53.0,5.0,-100.00,West,268,10.0,19.0,14,0.00,,,0.00,607.000000,,2013-04-20 00:32:00,
2013-04-19 17:42:00,53.0,5.0,-100.00,West,268,10.0,19.0,14,0.00,,,0.00,607.000000,,2013-04-20 00:42:00,
2013-04-19 17:52:00,53.0,5.0,-100.00,West,268,10.0,19.0,14,0.00,,,0.00,607.000000,,2013-04-20 00:52:00,
2013-04-19 18:00:00,52.0,7.0,-100.00,West,280,11.0,22.0,16,0.00,,,0.00,406.000000,,2013-04-20 01:00:00,
2013-04-19 18:32:00,52.0,7.0,-100.00,West,280,11.0,22.0,16,0.00,,,0.00,406.000000,,2013-04-20 01:32:00,
2013-04-19 18:42:00,52.0,7.0,-100.00,West,280,11.0,22.0,16,0.00,,,0.00,406.000000,,2013-04-20 01:42:00,
2013-04-19 18:52:00,52.0,7.0,-100.00,West,280,11.0,22.0,16,0.00,,,0.00,406.000000,,2013-04-20 01:52:00,
2013-04-19 19:00:00,49.0,10.0,-100.00,West,274,10.0,19.0,20,0.00,,,0.00,158.000000,,2013-04-20 02:00:00,
2013-04-19 19:32:00,49.0,10.0,-100.00,West,274,10.0,19.0,20,0.00,,,0.00,158.000000,,2013-04-20 02:32:00,
2013-04-19 19:42:00,49.0,10.0,-100.00,West,274,10.0,19.0,20,0.00,,,0.00,158.000000,,2013-04-20 02:42:00,
2013-04-19 19:52:00,49.0,10.0,-100.00,West,274,10.0,19.0,20,0.00,,,0.00,158.000000,,2013-04-20 02:52:00,
2013-04-19 20:00:00,47.0,11.0,-100.00,WNW,296,11.0,22.0,23,0.00,,,0.00,4.000000,,2013-04-20 03:00:00,
2013-04-19 20:33:00,47.0,11.0,-100.00,WNW,296,11.0,22.0,23,0.00,,,0.00,4.000000,,2013-04-20 03:33:00,
2013-04-19 20:43:00,47.0,11.0,-100.00,WNW,296,11.0,22.0,23,0.00,,,0.00,4.000000,,2013-04-20 03:43:00,
2013-04-19 20:53:00,47.0,11.0,-100.00,WNW,296,11.0,22.0,23,0.00,,,0.00,4.000000,,2013-04-20 03:53:00,
2013-04-19 21:00:00,46.0,11.0,-100.00,WNW,298,10.0,22.0,24,0.00,,,0.00,0.000000,,2013-04-20 04:00:00,
2013-04-19 21:33:00,46.0,11.0,-100.00,WNW,298,10.0,22.0,24,0.00,,,0.00,0.000000,,2013-04-20 04:33:00,
2013-04-19 21:43:00,46.0,11.0,-100.00,WNW,298,10.0,22.0,24,0.00,,,0.00,0.000000,,2013-04-20 04:43:00,
2013-04-19 21:52:00,46.0,11.0,-100.00,WNW,298,10.0,22.0,24,0.00,,,0.00,0.000000,,2013-04-20 04:52:00,
2013-04-19 22:00:00,44.0,12.0,-100.00,NNW,334,8.0,19.0,27,0.00,,,0.00,0.000000,,2013-04-20 05:00:00,
2013-04-19 22:22:00,44.0,12.0,-100.00,NNW,334,8.0,19.0,27,0.00,,,0.00,0.000000,,2013-04-20 05:22:00,
2013-04-19 22:32:00,44.0,12.0,-100.00,NNW,334,8.0,19.0,27,0.00,,,0.00,0.000000,,2013-04-20 05:32:00,
2013-04-19 22:43:00,44.0,12.0,-100.00,NNW,334,8.0,19.0,27,0.00,,,0.00,0.000000,,2013-04-20 05:43:00,
2013-04-19 22:52:00,44.0,12.0,-100.00,NNW,334,8.0,19.0,27,0.00,,,0.00,0.000000,,2013-04-20 05:52:00,
2013-04-19 23:00:00,42.0,12.0,-100.00,NNW,331,5.0,13.0,29,0.00,,,0.00,0.000000,,2013-04-20 06:00:00,
2013-04-19 23:32:00,42.0,12.0,-100.00,NNW,331,5.0,13.0,29,0.00,,,0.00,0.000000,,2013-04-20 06:32:00,
2013-04-19 23:42:00,42.0,12.0,-100.00,NNW,331,5.0,13.0,29,0.00,,,0.00,0.000000,,2013-04-20 06:42:00,
2013-04-19 23:52:00,42.0,12.0,-100.00,NNW,331,5.0,13.0,29,0.00,,,0.00,0.000000,,2013-04-20 06:52:00,